[[{"header":{"parameterUnit":"m.s-1","parameterCategory":2,"la1":30.2991,"la2":30.254,"lo1":-89.0895,"lo2":-89.0444,"dx":0.0017,"dy":0.0017,"nx":28,"ny":28,"refTime":"2022-11-21T15:00:00:Z","depth":"0","parameterNumber":2,"parameterNumberName":"U-component_of_CURRENTS"},"data":[0,0,0,0,0,0,0,0,0,0,0,0,0,0,0,0,0,0,0,0,0,0,0,0,0,0,0,0,0,0,0,0,0,0,0,0,0,0,0,0,0,0,0,0,0,0,0,0,0,0,0,0,0,0,0,0,0,0,-0.2588,-0.2588,0,-0.2562,-0.2561,-0.2561,-0.2512,-0.2512,-0.2511,-0.2511,-0.2444,-0.2442,-0.2441,0,0,0,0,0,0,0,0,0,0,0,0,0,-0.2565,-0.2565,-0.2588,-0.2588,-0.2588,-0.2562,-0.2561,-0.2561,-0.2512,-0.2512,-0.2511,-0.251,-0.2444,-0.2442,-0.2441,0,0,0,0,0,0,0,0,0,0,0,0,0,-0.2556,-0.2565,-0.2588,-0.2564,-0.2562,-0.2562,-0.2561,-0.256,-0.2513,-0.2512,-0.2511,-0.251,-0.2444,-0.2443,-0.2441,-0.2446,0,0,-0.2435,-0.2434,0,0,0,0,0,0,0,0,-0.2557,-0.2557,-0.2567,-0.2566,-0.2563,-0.2543,-0.2529,-0.2521,-0.2513,-0.2527,-0.2511,-0.251,-0.2476,-0.2472,-0.2463,-0.2442,-0.244,-0.2435,-0.2434,-0.2433,-0.2432,0,0,0,0,0,0,0,-0.2558,-0.2558,-0.2573,-0.2568,-0.2565,-0.2544,-0.2542,-0.2527,-0.2503,-0.2526,-0.2523,-0.2527,-0.2474,-0.2465,-0.2461,-0.2439,-0.2435,-0.2433,-0.2432,-0.2431,-0.2423,-0.2423,0,0,0,0,0,0,-0.2572,-0.2558,-0.2574,-0.2573,-0.2563,-0.2546,-0.2543,-0.2547,-0.2504,-0.2498,-0.2528,-0.2525,-0.2469,-0.2464,-0.2459,-0.2471,-0.2433,-0.2431,-0.243,-0.2422,-0.2423,-0.2424,0,0,0,0,0,0,-0.2572,-0.2574,-0.2575,-0.2568,-0.2568,-0.2548,-0.2552,-0.2547,-0.2537,-0.2507,-0.2499,-0.2524,-0.2468,-0.2462,-0.2447,-0.2468,-0.243,-0.2428,-0.2421,-0.2422,-0.2423,-0.249,0,0,0,0,0,0,-0.2571,-0.2574,-0.2575,-0.2569,-0.2569,-0.2583,-0.2553,-0.2547,-0.2543,-0.2539,-0.2501,-0.2494,-0.2467,-0.245,-0.2445,-0.2464,-0.2427,-0.2419,-0.2421,-0.2423,-0.2486,-0.2493,-0.2499,0,0,0,0,0,-0.257,-0.2579,-0.2575,-0.2577,-0.2573,-0.2584,-0.2581,-0.2561,-0.2544,-0.2547,-0.2518,-0.2495,-0.2458,-0.2449,-0.2443,-0.2462,-0.2419,-0.2421,-0.2423,-0.2484,-0.2492,-0.2499,0,0,0,0,0,0,-0.2564,-0.2575,-0.257,-0.258,-0.2586,-0.2578,-0.2575,-0.2567,-0.2546,-0.2536,-0.2502,-0.2494,-0.2492,-0.2468,-0.246,-0.2466,-0.2436,-0.2437,-0.2485,-0.2492,-0.2499,-0.2504,-0.2425,0,0,0,0,0,-0.2567,-0.2575,-0.2585,-0.2591,-0.2596,-0.2587,-0.2586,-0.2578,-0.2565,-0.2554,-0.2531,-0.2507,-0.2498,-0.2486,-0.2472,-0.2471,-0.2452,-0.2481,-0.2488,-0.2493,-0.2494,-0.2489,-0.2495,-0.2431,-0.2431,-0.2431,0,0,-0.2565,-0.2572,-0.2575,-0.259,-0.2587,-0.2604,-0.2582,-0.2588,-0.2599,-0.2551,-0.2548,-0.2529,-0.2504,-0.2505,-0.2502,-0.2485,-0.2502,-0.2496,-0.2501,-0.2498,-0.2492,-0.2498,-0.2503,-0.2432,-0.2432,-0.2431,0,0,-0.2571,-0.2573,-0.2585,-0.2599,-0.261,-0.2612,-0.2619,-0.2618,-0.2613,-0.2614,-0.2588,-0.2581,-0.2558,-0.2549,-0.254,-0.2573,-0.2539,-0.257,-0.2602,-0.2597,-0.2603,-0.2607,-0.2594,-0.2597,-0.2569,-0.257,-0.257,0,-0.2566,-0.2583,-0.259,-0.2611,-0.2621,-0.2621,-0.2639,-0.2644,-0.2638,-0.2639,-0.262,-0.2603,-0.2581,-0.2591,-0.2601,-0.2588,-0.2574,-0.2575,-0.2606,-0.261,-0.2613,-0.2599,-0.2601,-0.2573,-0.2573,-0.2572,-0.2572,0,-0.2583,-0.2601,-0.261,-0.2637,-0.2653,-0.2667,-0.2687,-0.2697,-0.269,-0.269,-0.2697,-0.2671,-0.2657,-0.2659,-0.2636,-0.2656,-0.2634,-0.2619,-0.2587,-0.2624,-0.2606,-0.2607,-0.2578,-0.2577,-0.2576,-0.2575,0,0,-0.255,-0.2611,-0.2609,-0.2628,-0.2667,-0.2677,-0.2713,-0.2737,-0.2749,-0.275,-0.2759,-0.2755,-0.2736,-0.2726,-0.2706,-0.2703,-0.2715,-0.2671,-0.2669,-0.2659,-0.2698,-0.261,-0.2602,-0.2703,-0.2703,-0.2704,-0.2678,0,-0.2552,-0.2594,-0.2627,-0.2662,-0.2684,-0.2713,-0.2743,-0.2768,-0.2778,-0.2789,-0.2785,-0.2781,-0.2765,-0.2752,-0.2754,-0.2722,-0.2719,-0.2722,-0.2663,-0.2661,-0.2579,-0.2601,-0.2487,-0.2448,-0.2679,-0.2679,-0.2679,0,-0.2549,-0.2576,-0.2614,-0.2673,-0.2683,-0.2706,-0.2744,-0.2774,-0.2808,-0.2816,-0.2829,-0.2818,-0.2823,-0.2796,-0.2777,-0.2778,-0.2744,-0.2721,-0.2719,-0.2612,-0.2574,-0.2448,-0.244,-0.2405,-0.268,-0.268,-0.268,0,-0.2501,-0.2565,-0.259,-0.2609,-0.2676,-0.2693,-0.2723,-0.2768,-0.2789,-0.2825,-0.2836,-0.2847,-0.2836,-0.2817,-0.2772,-0.2773,-0.274,-0.2732,-0.2627,-0.262,-0.2497,-0.2478,-0.2446,-0.2718,-0.2718,-0.2718,-0.2718,0,-0.2485,-0.2499,-0.2566,-0.2574,-0.2594,-0.2658,-0.2681,-0.2719,-0.277,-0.2784,-0.2833,-0.2834,-0.2839,-0.2821,-0.2784,-0.2702,-0.2749,-0.2631,-0.2607,-0.2516,-0.25,-0.2441,-0.2459,-0.2717,-0.2718,-0.2718,-0.2718,0,-0.2417,-0.2471,-0.2494,-0.2556,-0.2572,-0.2577,-0.2642,-0.2658,-0.2728,-0.2749,-0.2759,-0.2817,-0.2791,-0.2785,-0.2744,-0.2696,-0.2577,-0.2596,-0.2484,-0.2446,-0.2299,-0.2325,-0.2254,-0.2189,-0.2475,-0.2472,-0.247,0,-0.2383,-0.239,-0.2446,-0.2448,-0.2468,-0.2497,-0.2514,-0.2606,-0.2631,-0.272,-0.2716,-0.2733,-0.2705,-0.2637,-0.256,-0.2482,-0.2477,-0.2336,-0.2314,-0.2272,-0.2284,-0.2296,-0.2248,-0.2185,-0.218,-0.2177,-0.2174,0,-0.2293,-0.2314,-0.2326,-0.2338,-0.2353,-0.238,-0.2418,-0.2436,-0.2539,-0.2566,-0.2587,-0.2578,-0.254,-0.2407,-0.2327,-0.2271,-0.226,-0.2261,-0.2249,-0.2077,-0.2057,-0.1988,-0.2229,-0.2144,-0.2147,-0.2149,-0.2151,-0.2152,-0.2199,-0.2186,-0.2204,-0.2199,-0.2224,-0.2233,-0.2199,-0.2262,-0.2277,-0.2281,-0.2375,-0.2326,-0.2273,-0.2136,-0.2078,-0.1947,-0.2024,-0.1888,-0.193,-0.1953,-0.1862,-0.2029,-0.1896,-0.1897,-0.1899,-0.19,-0.1901,0,-0.2076,-0.2071,-0.2063,-0.2054,-0.2019,-0.2085,-0.2102,-0.2048,-0.2003,-0.2059,-0.2039,-0.2,-0.1869,-0.1847,-0.173,-0.1643,-0.1613,-0.1618,-0.1624,-0.1596,-0.1756,-0.1712,-0.1494,-0.1494,-0.1494,-0.1494,-0.1494,-0.1494,-0.2012,-0.1956,-0.1953,-0.1844,-0.1831,-0.1738,-0.1712,-0.1667,-0.1672,-0.1614,-0.162,-0.1683,-0.1684,-0.1717,-0.1578,-0.1499,-0.1467,-0.1414,-0.1455,-0.159,-0.1619,-0.1647,-0.1609,-0.1372,-0.1372,-0.1217,-0.1216,-0.1216]},{"header":{"parameterUnit":"m.s-1","parameterCategory":2,"la1":30.2991,"la2":30.254,"lo1":-89.0895,"lo2":-89.0444,"dx":0.0017,"dy":0.0017,"nx":28,"ny":28,"refTime":"2022-11-21T15:00:00:Z","depth":"0","parameterNumber":3,"parameterNumberName":"V-component_of_CURRENTS"},"data":[0,0,0,0,0,0,0,0,0,0,0,0,0,0,0,0,0,0,0,0,0,0,0,0,0,0,0,0,0,0,0,0,0,0,0,0,0,0,0,0,0,0,0,0,0,0,0,0,0,0,0,0,0,0,0,0,0,0,-0.0505,-0.0504,0,-0.0436,-0.0435,-0.0434,-0.0398,-0.0398,-0.0398,-0.0397,-0.0297,-0.0295,-0.0292,0,0,0,0,0,0,0,0,0,0,0,0,0,-0.0562,-0.0561,-0.0505,-0.0504,-0.0503,-0.0436,-0.0435,-0.0434,-0.0398,-0.0398,-0.0398,-0.0397,-0.0298,-0.0295,-0.0292,0,0,0,0,0,0,0,0,0,0,0,0,0,-0.052,-0.0561,-0.0505,-0.0477,-0.0474,-0.0436,-0.0435,-0.0434,-0.0398,-0.0398,-0.0397,-0.0397,-0.0299,-0.0296,-0.0292,-0.027,0,0,-0.028,-0.0278,0,0,0,0,0,0,0,0,-0.0522,-0.0518,-0.0482,-0.0479,-0.0475,-0.0425,-0.0418,-0.0378,-0.0398,-0.0427,-0.0397,-0.0397,-0.0337,-0.033,-0.0318,-0.0266,-0.0261,-0.028,-0.0277,-0.0276,-0.0274,0,0,0,0,0,0,0,-0.0525,-0.052,-0.0478,-0.0481,-0.0477,-0.0452,-0.0447,-0.041,-0.0383,-0.0424,-0.0421,-0.0413,-0.0335,-0.0322,-0.0316,-0.026,-0.028,-0.0276,-0.0274,-0.0272,-0.018,-0.018,0,0,0,0,0,0,-0.0536,-0.0523,-0.048,-0.0476,-0.0498,-0.0452,-0.0445,-0.0441,-0.0384,-0.0375,-0.0414,-0.0412,-0.0329,-0.032,-0.0312,-0.0288,-0.0276,-0.0272,-0.027,-0.018,-0.018,-0.0179,0,0,0,0,0,0,-0.0537,-0.0533,-0.0483,-0.0497,-0.0489,-0.0451,-0.0447,-0.044,-0.0427,-0.0376,-0.0367,-0.0408,-0.0328,-0.0317,-0.0282,-0.0283,-0.027,-0.0267,-0.018,-0.018,-0.018,-0.0236,0,0,0,0,0,0,-0.0539,-0.0534,-0.0537,-0.0498,-0.0489,-0.0467,-0.0447,-0.0439,-0.0422,-0.042,-0.0368,-0.0359,-0.0327,-0.0288,-0.0278,-0.0278,-0.0264,-0.018,-0.018,-0.018,-0.0235,-0.0238,-0.0241,0,0,0,0,0,-0.0542,-0.0548,-0.0538,-0.0533,-0.0494,-0.0467,-0.046,-0.0432,-0.0422,-0.042,-0.0384,-0.036,-0.0279,-0.0285,-0.0273,-0.0272,-0.018,-0.018,-0.018,-0.0233,-0.0238,-0.0241,0,0,0,0,0,0,-0.0574,-0.0543,-0.0532,-0.0529,-0.0502,-0.0461,-0.0457,-0.0436,-0.0406,-0.0404,-0.0357,-0.0345,-0.0315,-0.0284,-0.0291,-0.0244,-0.0226,-0.0224,-0.0271,-0.0274,-0.0278,-0.0292,-0.026,0,0,0,0,0,-0.0583,-0.0581,-0.0545,-0.0543,-0.0533,-0.0495,-0.0482,-0.0462,-0.0429,-0.0416,-0.0379,-0.034,-0.0304,-0.0283,-0.0248,-0.0221,-0.0185,-0.0212,-0.0215,-0.0218,-0.0221,-0.0174,-0.0173,-0.0178,-0.0178,-0.0178,0,0,-0.0596,-0.0578,-0.0578,-0.055,-0.0529,-0.0521,-0.0487,-0.0471,-0.0462,-0.0409,-0.0389,-0.035,-0.0299,-0.0271,-0.0255,-0.0246,-0.0196,-0.0218,-0.0221,-0.0222,-0.0174,-0.0173,-0.0173,-0.0178,-0.0178,-0.0178,0,0,-0.0623,-0.0604,-0.0614,-0.0595,-0.0567,-0.0542,-0.0539,-0.05,-0.0481,-0.0454,-0.0415,-0.0377,-0.0324,-0.0289,-0.0264,-0.0261,-0.0217,-0.025,-0.0276,-0.023,-0.0229,-0.0228,-0.018,-0.0175,-0.025,-0.0251,-0.0251,0,-0.064,-0.0646,-0.0612,-0.0614,-0.0604,-0.0556,-0.0562,-0.0534,-0.0488,-0.0472,-0.0456,-0.0374,-0.0333,-0.0292,-0.0293,-0.0269,-0.0236,-0.0268,-0.0235,-0.0234,-0.0232,-0.0182,-0.0175,-0.0253,-0.0253,-0.0253,-0.0252,0,-0.0672,-0.0677,-0.068,-0.0668,-0.0651,-0.0649,-0.0605,-0.0586,-0.0556,-0.0523,-0.0477,-0.0417,-0.0369,-0.0348,-0.0319,-0.0285,-0.0263,-0.0248,-0.023,-0.0235,-0.0182,-0.0174,-0.0257,-0.0256,-0.0255,-0.0255,0,0,-0.0714,-0.0707,-0.0709,-0.0717,-0.0682,-0.0674,-0.0655,-0.0624,-0.0612,-0.0558,-0.0535,-0.0469,-0.0431,-0.04,-0.0352,-0.031,-0.0265,-0.0279,-0.0276,-0.0239,-0.0161,-0.011,-0.0095,-0.0247,-0.0246,-0.0245,-0.013,0,-0.0752,-0.0782,-0.0758,-0.0779,-0.0791,-0.0741,-0.0728,-0.069,-0.0645,-0.0607,-0.0534,-0.0492,-0.0451,-0.0426,-0.0378,-0.0291,-0.0247,-0.0298,-0.0155,-0.0151,-0.0111,-0.0085,-0.0063,0.0045,-0.0121,-0.012,-0.0119,0,-0.0793,-0.0809,-0.0843,-0.0842,-0.0841,-0.0838,-0.0808,-0.0789,-0.0717,-0.0681,-0.0621,-0.0556,-0.0479,-0.0447,-0.0306,-0.0341,-0.0261,-0.0193,-0.0187,-0.0114,-0.0083,0.0024,0.0067,0.0182,-0.0105,-0.0107,-0.0107,0,-0.0849,-0.0867,-0.0901,-0.09,-0.0886,-0.0886,-0.0873,-0.0815,-0.0798,-0.0724,-0.0695,-0.0595,-0.0535,-0.0429,-0.0281,-0.0295,-0.012,-0.0119,0.0004,0.0009,0.0069,0.0078,0.0234,-0.0026,-0.0026,-0.0027,-0.0027,0,-0.0902,-0.0927,-0.0932,-0.0949,-0.0981,-0.0945,-0.0952,-0.092,-0.0866,-0.084,-0.0741,-0.0685,-0.0527,-0.0403,-0.0287,-0.0103,-0.0119,0.0009,0.0046,0.0051,0.0057,0.0193,0.0237,-0.0022,-0.0023,-0.0024,-0.0025,0,-0.0955,-0.096,-0.0998,-0.1004,-0.101,-0.1031,-0.1016,-0.1014,-0.0953,-0.0912,-0.0889,-0.0743,-0.057,-0.04,-0.0203,-0.0099,0.0146,0.0125,0.0126,0.016,0.0369,0.0407,0.0608,0.0682,0.0274,0.0277,0.0278,0,-0.0985,-0.1013,-0.1048,-0.1075,-0.108,-0.1101,-0.1113,-0.1069,-0.1056,-0.0939,-0.092,-0.0743,-0.0601,-0.0284,-0.0062,0.0169,0.0251,0.0314,0.0292,0.0399,0.0469,0.0493,0.0542,0.0353,0.0355,0.0357,0.0358,0,-0.1036,-0.1047,-0.1079,-0.114,-0.117,-0.12,-0.1206,-0.1203,-0.1132,-0.107,-0.0943,-0.0817,-0.0492,-0.0196,0.011,0.0237,0.0407,0.0358,0.0473,0.0553,0.0587,0.0668,0.0257,0.0374,0.0373,0.0371,0.0371,0.037,-0.1065,-0.1106,-0.1147,-0.1201,-0.1243,-0.1277,-0.1283,-0.1258,-0.1217,-0.1089,-0.0964,-0.0738,-0.0319,0.0128,0.0287,0.0606,0.0564,0.0676,0.0718,0.0736,0.0802,0.0429,0.0581,0.058,0.058,0.058,0.0579,0,-0.1096,-0.1143,-0.1203,-0.1263,-0.1308,-0.1316,-0.1326,-0.1297,-0.1228,-0.1079,-0.0919,-0.0451,-0.0039,0.0335,0.0801,0.0958,0.0979,0.1018,0.1051,0.1086,0.0766,0.0763,0.0957,0.0957,0.0956,0.0956,0.0956,0.0956,-0.1114,-0.1178,-0.1214,-0.1296,-0.1334,-0.136,-0.1355,-0.1294,-0.1181,-0.0908,-0.064,-0.0422,0.0112,0.0862,0.1269,0.1289,0.1412,0.1387,0.1465,0.1229,0.1199,0.1171,0.1179,0.1457,0.1458,0.1764,0.1767,0.1769]}],[{"header":{"parameterUnit":"m.s-1","parameterCategory":2,"la1":30.2991,"la2":30.254,"lo1":-89.0895,"lo2":-89.0444,"dx":0.0017,"dy":0.0017,"nx":28,"ny":28,"refTime":"2022-11-21T15:00:00:Z","depth":"2","parameterNumber":2,"parameterNumberName":"U-component_of_CURRENTS"},"data":[0,0,0,0,0,0,0,0,0,0,0,0,0,0,0,0,0,0,0,0,0,0,0,0,0,0,0,0,0,0,0,0,0,0,0,0,0,0,0,0,0,0,0,0,0,0,0,0,0,0,0,0,0,0,0,0,0,0,-0.2253,-0.2253,0,-0.2249,-0.2249,-0.2249,-0.2221,-0.222,-0.222,-0.222,-0.2184,-0.2184,-0.2183,0,0,0,0,0,0,0,0,0,0,0,0,0,-0.2216,-0.2217,-0.2253,-0.2253,-0.2253,-0.2249,-0.2249,-0.2249,-0.2221,-0.222,-0.222,-0.2219,-0.2184,-0.2184,-0.2183,0,0,0,0,0,0,0,0,0,0,0,0,0,-0.2221,-0.2217,-0.2253,-0.2241,-0.2241,-0.2249,-0.2249,-0.2248,-0.2221,-0.222,-0.222,-0.2219,-0.2185,-0.2184,-0.2183,-0.2189,0,0,-0.218,-0.218,0,0,0,0,0,0,0,0,-0.2221,-0.2222,-0.2243,-0.2242,-0.2241,-0.2238,-0.2223,-0.2228,-0.2221,-0.2225,-0.222,-0.2219,-0.2202,-0.2199,-0.2196,-0.2187,-0.2186,-0.218,-0.218,-0.2179,-0.2179,0,0,0,0,0,0,0,-0.2221,-0.2222,-0.2248,-0.2243,-0.2242,-0.223,-0.223,-0.2224,-0.2213,-0.2224,-0.2223,-0.2228,-0.2201,-0.2197,-0.2195,-0.2185,-0.218,-0.2179,-0.2179,-0.2178,-0.2194,-0.2195,0,0,0,0,0,0,-0.223,-0.2222,-0.2248,-0.2248,-0.2233,-0.2232,-0.2231,-0.2237,-0.2214,-0.2211,-0.2229,-0.2227,-0.2198,-0.2196,-0.2193,-0.2217,-0.2179,-0.2178,-0.2178,-0.2193,-0.2194,-0.2195,0,0,0,0,0,0,-0.2229,-0.2232,-0.2248,-0.2238,-0.2239,-0.2233,-0.2239,-0.2237,-0.2237,-0.2218,-0.2214,-0.2232,-0.2198,-0.2194,-0.2194,-0.2215,-0.2178,-0.2177,-0.2192,-0.2194,-0.2195,-0.2254,0,0,0,0,0,0,-0.2228,-0.2232,-0.2236,-0.2238,-0.224,-0.2262,-0.224,-0.2238,-0.2243,-0.224,-0.222,-0.2216,-0.2197,-0.2196,-0.2193,-0.2213,-0.2176,-0.2191,-0.2193,-0.2194,-0.2251,-0.2257,-0.2263,0,0,0,0,0,-0.2227,-0.2237,-0.2236,-0.224,-0.2247,-0.2263,-0.2263,-0.2254,-0.2244,-0.225,-0.2235,-0.2217,-0.2205,-0.2196,-0.2193,-0.2213,-0.219,-0.2192,-0.2194,-0.2248,-0.2256,-0.2262,0,0,0,0,0,0,-0.2221,-0.2236,-0.2235,-0.2248,-0.226,-0.226,-0.2263,-0.2262,-0.2255,-0.2249,-0.2226,-0.2222,-0.2232,-0.2214,-0.2204,-0.2223,-0.2196,-0.2197,-0.2238,-0.2245,-0.2251,-0.2253,-0.2176,0,0,0,0,0,-0.2224,-0.2234,-0.2249,-0.2258,-0.2266,-0.2267,-0.2271,-0.227,-0.2267,-0.2263,-0.2252,-0.224,-0.2239,-0.2235,-0.2229,-0.2237,-0.2218,-0.2249,-0.2255,-0.226,-0.226,-0.2256,-0.2262,-0.2202,-0.2202,-0.2202,0,0,-0.2223,-0.2233,-0.2237,-0.2258,-0.2261,-0.2282,-0.2267,-0.2279,-0.2295,-0.2261,-0.2271,-0.2262,-0.2247,-0.2257,-0.226,-0.2244,-0.2267,-0.2263,-0.2267,-0.2264,-0.2259,-0.2265,-0.227,-0.2204,-0.2204,-0.2203,0,0,-0.223,-0.2237,-0.225,-0.2267,-0.2285,-0.2291,-0.23,-0.231,-0.2312,-0.2326,-0.2308,-0.231,-0.2304,-0.23,-0.2296,-0.2332,-0.2302,-0.2333,-0.2361,-0.2358,-0.2363,-0.2367,-0.2351,-0.2353,-0.2332,-0.2332,-0.2332,0,-0.2228,-0.2247,-0.2257,-0.2279,-0.2294,-0.2301,-0.2323,-0.2334,-0.2342,-0.2348,-0.2336,-0.2338,-0.2326,-0.2342,-0.2353,-0.2346,-0.2333,-0.2335,-0.2366,-0.2369,-0.2372,-0.2355,-0.2357,-0.2335,-0.2335,-0.2335,-0.2334,0,-0.2246,-0.2267,-0.2278,-0.2308,-0.2328,-0.2347,-0.2371,-0.2388,-0.2391,-0.2397,-0.2414,-0.2401,-0.2397,-0.2402,-0.2387,-0.2409,-0.2389,-0.2377,-0.2347,-0.2382,-0.2362,-0.2362,-0.234,-0.2339,-0.2338,-0.2337,0,0,-0.2218,-0.2279,-0.228,-0.23,-0.2344,-0.2357,-0.2398,-0.2428,-0.2444,-0.2456,-0.2472,-0.2479,-0.2467,-0.2462,-0.245,-0.2449,-0.246,-0.2423,-0.2422,-0.2407,-0.2445,-0.2361,-0.2353,-0.2453,-0.2454,-0.2454,-0.2422,0,-0.2224,-0.2269,-0.2301,-0.234,-0.2364,-0.2396,-0.2431,-0.2461,-0.2478,-0.2496,-0.2498,-0.2505,-0.2493,-0.2488,-0.2491,-0.2468,-0.2464,-0.2469,-0.2413,-0.2412,-0.2332,-0.2351,-0.2178,-0.2129,-0.2422,-0.2422,-0.2422,0,-0.2225,-0.2253,-0.2296,-0.2355,-0.2367,-0.2395,-0.244,-0.2472,-0.2512,-0.2525,-0.2542,-0.2539,-0.2549,-0.2526,-0.2512,-0.2516,-0.2485,-0.2465,-0.2463,-0.2363,-0.2328,-0.2142,-0.2118,-0.2423,-0.2423,-0.2423,-0.2423,0,-0.2183,-0.2248,-0.2278,-0.2298,-0.2367,-0.2389,-0.2421,-0.2471,-0.2494,-0.2535,-0.2551,-0.2566,-0.2563,-0.2545,-0.2508,-0.2511,-0.2479,-0.2474,-0.2371,-0.2365,-0.2194,-0.2171,-0.2459,-0.2459,-0.2459,-0.2459,-0.2459,0,-0.2171,-0.219,-0.2259,-0.2271,-0.2299,-0.236,-0.239,-0.243,-0.2483,-0.2499,-0.2551,-0.2555,-0.2567,-0.2551,-0.2517,-0.2439,-0.2484,-0.2374,-0.2351,-0.2209,-0.2189,-0.2424,-0.242,-0.2458,-0.2458,-0.2458,-0.2459,0,-0.2113,-0.2167,-0.2195,-0.2261,-0.228,-0.2291,-0.2359,-0.2377,-0.2448,-0.2471,-0.2484,-0.2543,-0.252,-0.2516,-0.2479,-0.2433,-0.2377,-0.2335,-0.2162,-0.2119,-0.2264,-0.2264,-0.2222,-0.2219,-0.2216,-0.2214,-0.2212,0,-0.2084,-0.2095,-0.2157,-0.2164,-0.2188,-0.2223,-0.2244,-0.2333,-0.2356,-0.2443,-0.244,-0.2462,-0.2431,-0.2367,-0.2293,-0.2215,-0.2291,-0.2016,-0.199,-0.2257,-0.224,-0.2244,-0.2248,-0.1788,-0.1782,-0.1778,-0.1775,0,-0.2007,-0.2032,-0.2047,-0.2068,-0.2088,-0.2115,-0.2155,-0.2172,-0.2268,-0.2293,-0.2309,-0.2298,-0.2262,-0.2101,-0.2024,-0.196,-0.2018,-0.1925,-0.2241,-0.1878,-0.1846,-0.183,-0.1848,-0.1737,-0.174,-0.1743,-0.1745,-0.1747,-0.1926,-0.1918,-0.1941,-0.1944,-0.1972,-0.1979,-0.1947,-0.2002,-0.201,-0.2007,-0.2094,-0.2018,-0.2009,-0.1793,-0.1694,-0.1629,-0.1771,-0.1689,-0.1703,-0.1721,-0.168,-0.1645,-0.149,-0.1492,-0.1494,-0.1496,-0.1498,0,-0.1817,-0.1817,-0.1815,-0.1811,-0.178,-0.1846,-0.1857,-0.18,-0.1746,-0.1778,-0.1751,-0.1571,-0.1462,-0.1465,-0.1301,-0.1268,-0.1269,-0.1215,-0.1213,-0.1251,-0.1285,-0.1223,-0.0911,-0.0909,-0.0907,-0.0906,0,0,-0.1761,-0.1714,-0.1712,-0.1614,-0.1606,-0.152,-0.1492,-0.1437,-0.1422,-0.133,-0.1287,-0.1373,-0.1419,-0.1161,-0.11,-0.0977,-0.1106,-0.093,-0.1401,-0.1436,-0.1468,-0.1557,-0.1504,0,0,0,0,0]},{"header":{"parameterUnit":"m.s-1","parameterCategory":2,"la1":30.2991,"la2":30.254,"lo1":-89.0895,"lo2":-89.0444,"dx":0.0017,"dy":0.0017,"nx":28,"ny":28,"refTime":"2022-11-21T15:00:00:Z","depth":"2","parameterNumber":3,"parameterNumberName":"V-component_of_CURRENTS"},"data":[0,0,0,0,0,0,0,0,0,0,0,0,0,0,0,0,0,0,0,0,0,0,0,0,0,0,0,0,0,0,0,0,0,0,0,0,0,0,0,0,0,0,0,0,0,0,0,0,0,0,0,0,0,0,0,0,0,0,-0.0314,-0.0313,0,-0.0253,-0.0253,-0.0252,-0.022,-0.022,-0.022,-0.022,-0.0132,-0.013,-0.0128,0,0,0,0,0,0,0,0,0,0,0,0,0,-0.0359,-0.0359,-0.0314,-0.0313,-0.0312,-0.0254,-0.0253,-0.0252,-0.022,-0.022,-0.022,-0.022,-0.0133,-0.013,-0.0128,0,0,0,0,0,0,0,0,0,0,0,0,0,-0.0324,-0.0359,-0.0314,-0.0289,-0.0286,-0.0254,-0.0253,-0.0252,-0.022,-0.022,-0.022,-0.022,-0.0134,-0.013,-0.0127,-0.0109,0,0,-0.0117,-0.0115,0,0,0,0,0,0,0,0,-0.0326,-0.0322,-0.0293,-0.0291,-0.0287,-0.0244,-0.0237,-0.0202,-0.022,-0.0245,-0.022,-0.022,-0.0167,-0.0161,-0.015,-0.0105,-0.0101,-0.0117,-0.0114,-0.0113,-0.0112,0,0,0,0,0,0,0,-0.0328,-0.0324,-0.029,-0.0293,-0.0289,-0.0266,-0.0262,-0.023,-0.0207,-0.0243,-0.0241,-0.0234,-0.0165,-0.0154,-0.0148,-0.01,-0.0117,-0.0114,-0.0112,-0.011,-0.0033,-0.0033,0,0,0,0,0,0,-0.0338,-0.0327,-0.0292,-0.0288,-0.0306,-0.0266,-0.0261,-0.0258,-0.0208,-0.02,-0.0234,-0.0232,-0.016,-0.0152,-0.0145,-0.0125,-0.0113,-0.011,-0.0108,-0.0033,-0.0033,-0.0033,0,0,0,0,0,0,-0.0339,-0.0335,-0.0294,-0.0306,-0.0299,-0.0266,-0.0263,-0.0257,-0.0247,-0.0201,-0.0193,-0.023,-0.0159,-0.015,-0.012,-0.0121,-0.0108,-0.0105,-0.0033,-0.0033,-0.0033,-0.0081,0,0,0,0,0,0,-0.0341,-0.0336,-0.0341,-0.0307,-0.0299,-0.0282,-0.0263,-0.0256,-0.0243,-0.024,-0.0195,-0.0187,-0.0158,-0.0126,-0.0117,-0.0116,-0.0103,-0.0033,-0.0033,-0.0033,-0.008,-0.0083,-0.0085,0,0,0,0,0,-0.0343,-0.035,-0.0342,-0.0337,-0.0305,-0.0282,-0.0276,-0.0251,-0.0243,-0.0242,-0.0211,-0.0188,-0.0119,-0.0123,-0.0113,-0.0111,-0.0033,-0.0033,-0.0033,-0.0078,-0.0082,-0.0085,0,0,0,0,0,0,-0.0372,-0.0346,-0.0336,-0.0336,-0.0313,-0.0277,-0.0274,-0.0256,-0.023,-0.0229,-0.0187,-0.0176,-0.0151,-0.0124,-0.0129,-0.0088,-0.0073,-0.0071,-0.0111,-0.0114,-0.0117,-0.0128,-0.01,0,0,0,0,0,-0.0381,-0.0381,-0.035,-0.035,-0.0341,-0.0309,-0.0297,-0.028,-0.0252,-0.0241,-0.0208,-0.0174,-0.0143,-0.0124,-0.0094,-0.007,-0.0037,-0.0062,-0.0065,-0.0068,-0.0069,-0.0022,-0.0021,-0.0033,-0.0033,-0.0033,0,0,-0.0393,-0.0379,-0.0379,-0.0356,-0.0338,-0.0332,-0.0302,-0.0289,-0.0281,-0.0234,-0.0217,-0.0184,-0.0139,-0.0115,-0.0101,-0.0092,-0.0047,-0.0068,-0.007,-0.0071,-0.0022,-0.0021,-0.002,-0.0033,-0.0033,-0.0033,0,0,-0.0419,-0.0405,-0.0414,-0.0398,-0.0374,-0.0352,-0.0351,-0.0317,-0.03,-0.0277,-0.0242,-0.021,-0.0165,-0.0131,-0.0108,-0.0108,-0.0067,-0.01,-0.0119,-0.0074,-0.0072,-0.0071,-0.003,-0.0024,-0.0098,-0.0099,-0.0099,0,-0.0435,-0.0442,-0.0413,-0.0415,-0.0407,-0.0365,-0.0372,-0.0346,-0.0306,-0.0291,-0.028,-0.0207,-0.0171,-0.0132,-0.0134,-0.0114,-0.0084,-0.0111,-0.0078,-0.0076,-0.0073,-0.0031,-0.0025,-0.0101,-0.0101,-0.01,-0.01,0,-0.0464,-0.047,-0.0473,-0.0464,-0.0449,-0.0448,-0.041,-0.0393,-0.0368,-0.0337,-0.0297,-0.0244,-0.02,-0.0183,-0.0158,-0.0123,-0.0106,-0.009,-0.0072,-0.0075,-0.0031,-0.0023,-0.0104,-0.0103,-0.0103,-0.0102,0,0,-0.0504,-0.0498,-0.05,-0.0508,-0.0477,-0.0471,-0.0454,-0.0425,-0.0414,-0.0366,-0.0343,-0.0285,-0.0251,-0.0223,-0.0181,-0.0139,-0.0097,-0.0113,-0.011,-0.0078,0.0002,0.0037,0.0049,-0.0076,-0.0075,-0.0074,0.0025,0,-0.0539,-0.0566,-0.0544,-0.0564,-0.0575,-0.053,-0.0518,-0.0483,-0.0443,-0.0409,-0.034,-0.0305,-0.0267,-0.0247,-0.0198,-0.0121,-0.0078,-0.0125,0.0005,0.0009,0.0036,0.0059,0.0035,0.0124,0.0033,0.0035,0.0036,0,-0.0576,-0.0591,-0.0622,-0.0622,-0.0621,-0.062,-0.0593,-0.0575,-0.0508,-0.0476,-0.0419,-0.0361,-0.0288,-0.026,-0.0127,-0.0159,-0.0087,-0.0026,-0.002,0.0035,0.0059,0.0114,0.0142,0.0049,0.0048,0.0047,0.0046,0,-0.0629,-0.0644,-0.0676,-0.0675,-0.0663,-0.0664,-0.0653,-0.06,-0.0586,-0.0517,-0.0493,-0.0395,-0.0344,-0.024,-0.0109,-0.0119,0.004,0.0045,0.0147,0.015,0.0168,0.0171,0.0136,0.0136,0.0136,0.0135,0.0135,0,-0.0676,-0.07,-0.0707,-0.0723,-0.0755,-0.0721,-0.073,-0.0701,-0.0652,-0.0632,-0.0536,-0.049,-0.0337,-0.0224,-0.0114,0.0049,0.0041,0.0152,0.0183,0.0151,0.0151,0.0114,0.011,0.0139,0.0138,0.0137,0.0137,0,-0.0726,-0.0731,-0.0767,-0.0775,-0.0782,-0.0804,-0.0795,-0.0795,-0.074,-0.0708,-0.0688,-0.0554,-0.0398,-0.0237,-0.0053,0.0045,0.0192,0.0248,0.02,0.0224,0.027,0.0262,0.037,0.0372,0.0374,0.0375,0.0377,0,-0.0753,-0.078,-0.0817,-0.0845,-0.0852,-0.0875,-0.0889,-0.0851,-0.084,-0.0742,-0.0727,-0.0571,-0.0444,-0.0155,0.0047,0.026,0.0251,0.0354,0.0335,0.0277,0.0296,0.0285,0.0276,0.0339,0.034,0.0341,0.0341,0,-0.0801,-0.0814,-0.0845,-0.0908,-0.0941,-0.0972,-0.0982,-0.0983,-0.0921,-0.0869,-0.0761,-0.0651,-0.0364,-0.0114,0.0162,0.0274,0.0319,0.0376,0.0343,0.028,0.0255,0.0271,0.0261,0.0347,0.0347,0.0346,0.0346,0.0346,-0.083,-0.087,-0.0912,-0.0968,-0.1012,-0.1049,-0.1056,-0.1037,-0.1005,-0.0894,-0.0789,-0.0591,-0.0354,0.0052,0.0243,0.0413,0.0402,0.0442,0.0437,0.0431,0.0407,0.0387,0.0499,0.0499,0.0499,0.0499,0.05,0,-0.086,-0.0907,-0.0967,-0.1029,-0.1075,-0.1087,-0.11,-0.1073,-0.1015,-0.0887,-0.0749,-0.0469,-0.0187,0.0052,0.0336,0.0501,0.0471,0.0517,0.045,0.0443,0.0437,0.041,0.0504,0.0505,0.0505,0.0506,0,0,-0.0878,-0.094,-0.0975,-0.1059,-0.1101,-0.1131,-0.1128,-0.1072,-0.0972,-0.0821,-0.0665,-0.0462,-0.017,0.0037,0.0243,0.0389,0.0367,0.0391,0.0369,0.0259,0.0251,0.0377,0.0327,0,0,0,0,0]}],[{"header":{"parameterUnit":"m.s-1","parameterCategory":2,"la1":30.2991,"la2":30.254,"lo1":-89.0895,"lo2":-89.0444,"dx":0.0017,"dy":0.0017,"nx":28,"ny":28,"refTime":"2022-11-21T15:00:00:Z","depth":"4","parameterNumber":2,"parameterNumberName":"U-component_of_CURRENTS"},"data":[0,0,0,0,0,0,0,0,0,0,0,0,0,0,0,0,0,0,0,0,0,0,0,0,0,0,0,0,0,0,0,0,0,0,0,0,0,0,0,0,0,0,0,0,0,0,0,0,0,0,0,0,0,0,0,0,0,0,-0.1539,-0.154,0,-0.1594,-0.1595,-0.1595,-0.1633,-0.1633,-0.1634,-0.1634,-0.1692,-0.1693,-0.1694,0,0,0,0,0,0,0,0,0,0,0,0,0,-0.1463,-0.1464,-0.1539,-0.154,-0.1541,-0.1594,-0.1595,-0.1595,-0.1633,-0.1633,-0.1634,-0.1634,-0.1692,-0.1693,-0.1694,0,0,0,0,0,0,0,0,0,0,0,0,0,-0.1503,-0.1465,-0.1539,-0.1567,-0.1571,-0.1594,-0.1595,-0.1596,-0.1633,-0.1633,-0.1634,-0.1635,-0.1691,-0.1693,-0.1695,-0.1692,0,0,-0.17,-0.1701,0,0,0,0,0,0,0,0,-0.1501,-0.1506,-0.1562,-0.1565,-0.1569,-0.1609,-0.159,-0.1629,-0.1633,-0.1607,-0.1634,-0.1635,-0.1665,-0.1669,-0.1676,-0.1695,-0.1697,-0.17,-0.1701,-0.1702,-0.1702,0,0,0,0,0,0,0,-0.1498,-0.1504,-0.1559,-0.1563,-0.1567,-0.1576,-0.1583,-0.1597,-0.1631,-0.161,-0.1613,-0.1622,-0.1667,-0.1674,-0.1677,-0.1698,-0.17,-0.1701,-0.1703,-0.1703,-0.179,-0.1792,0,0,0,0,0,0,-0.1495,-0.1501,-0.1558,-0.1561,-0.1538,-0.1577,-0.1584,-0.1594,-0.1631,-0.1637,-0.1621,-0.1623,-0.1671,-0.1675,-0.1679,-0.175,-0.1702,-0.1703,-0.1704,-0.1789,-0.1791,-0.1792,0,0,0,0,0,0,-0.1493,-0.1499,-0.1555,-0.1534,-0.1542,-0.1578,-0.1589,-0.1595,-0.1631,-0.164,-0.1646,-0.1654,-0.1671,-0.1677,-0.1719,-0.175,-0.1704,-0.1706,-0.1788,-0.179,-0.1791,-0.1846,0,0,0,0,0,0,-0.149,-0.1498,-0.1517,-0.1533,-0.1543,-0.159,-0.1589,-0.1596,-0.1634,-0.1638,-0.1669,-0.1674,-0.1672,-0.1716,-0.172,-0.1752,-0.1707,-0.1786,-0.1789,-0.1791,-0.1843,-0.185,-0.1856,0,0,0,0,0,-0.1487,-0.1507,-0.1517,-0.1525,-0.1563,-0.1591,-0.1598,-0.1623,-0.1635,-0.1657,-0.1679,-0.1674,-0.1734,-0.1719,-0.1723,-0.1756,-0.1785,-0.1788,-0.1791,-0.184,-0.1849,-0.1856,0,0,0,0,0,0,-0.1485,-0.1513,-0.1525,-0.1553,-0.1581,-0.1599,-0.1624,-0.164,-0.1674,-0.1686,-0.1691,-0.1698,-0.1746,-0.1743,-0.1725,-0.1788,-0.1759,-0.1763,-0.1795,-0.1803,-0.1809,-0.1803,-0.1708,0,0,0,0,0,-0.1492,-0.1515,-0.1541,-0.1567,-0.1582,-0.1608,-0.1628,-0.1648,-0.1673,-0.169,-0.1713,-0.1735,-0.1756,-0.1774,-0.1792,-0.1826,-0.1806,-0.1849,-0.1856,-0.1861,-0.186,-0.186,-0.1866,-0.1802,-0.1802,-0.1802,0,0,-0.1499,-0.1518,-0.1532,-0.1568,-0.1591,-0.1622,-0.1623,-0.1662,-0.1695,-0.169,-0.1749,-0.1763,-0.1771,-0.1812,-0.1833,-0.1817,-0.187,-0.1865,-0.187,-0.1865,-0.1864,-0.187,-0.1875,-0.1804,-0.1803,-0.1803,0,0,-0.1516,-0.1542,-0.1565,-0.1591,-0.1633,-0.1649,-0.1668,-0.1706,-0.1733,-0.1782,-0.1788,-0.182,-0.1859,-0.1868,-0.1876,-0.1929,-0.1905,-0.1942,-0.197,-0.1972,-0.1977,-0.1981,-0.196,-0.1962,-0.1944,-0.1944,-0.1944,0,-0.1526,-0.1556,-0.1578,-0.1608,-0.1635,-0.1666,-0.17,-0.1731,-0.1781,-0.1803,-0.1811,-0.187,-0.1882,-0.1918,-0.1939,-0.1944,-0.1933,-0.194,-0.1979,-0.1983,-0.1986,-0.1964,-0.1965,-0.1947,-0.1946,-0.1946,-0.1946,0,-0.155,-0.1589,-0.1606,-0.1653,-0.1686,-0.1722,-0.1763,-0.1805,-0.1841,-0.1865,-0.1921,-0.1937,-0.1965,-0.1981,-0.1979,-0.2014,-0.1995,-0.1988,-0.1957,-0.1996,-0.197,-0.1971,-0.1951,-0.195,-0.1949,-0.1948,0,0,-0.153,-0.1609,-0.1618,-0.1649,-0.1714,-0.1739,-0.1801,-0.1854,-0.1891,-0.1941,-0.198,-0.2025,-0.2031,-0.204,-0.2044,-0.205,-0.2066,-0.2035,-0.2033,-0.2009,-0.2056,-0.1918,-0.1905,-0.2069,-0.207,-0.207,-0.2027,0,-0.1545,-0.1605,-0.1644,-0.1708,-0.1741,-0.1794,-0.1845,-0.1898,-0.1943,-0.1989,-0.2014,-0.2053,-0.2054,-0.2071,-0.208,-0.2073,-0.207,-0.2077,-0.2026,-0.2024,-0.1892,-0.1902,-0.2072,-0.2027,-0.2027,-0.2027,-0.2027,0,-0.1547,-0.1589,-0.1656,-0.1735,-0.1755,-0.1802,-0.1879,-0.1928,-0.1995,-0.2029,-0.207,-0.2088,-0.2116,-0.2106,-0.2106,-0.2112,-0.2089,-0.2075,-0.2073,-0.1922,-0.1886,-0.1981,-0.2027,-0.2027,-0.2027,-0.2027,-0.2027,0,-0.1505,-0.1594,-0.1648,-0.1677,-0.1771,-0.1815,-0.1866,-0.1942,-0.198,-0.2052,-0.2081,-0.2117,-0.2134,-0.2125,-0.2102,-0.211,-0.2081,-0.2083,-0.1932,-0.1922,-0.2036,-0.2032,-0.207,-0.207,-0.207,-0.207,-0.2071,0,-0.1487,-0.1531,-0.1639,-0.1664,-0.1724,-0.18,-0.1863,-0.1921,-0.1994,-0.202,-0.2094,-0.2102,-0.2143,-0.2132,-0.2105,-0.2006,-0.208,-0.1926,-0.1899,-0.206,-0.2059,-0.2035,-0.2032,-0.2069,-0.2069,-0.2069,-0.207,0,-0.1424,-0.1501,-0.1562,-0.167,-0.1707,-0.1747,-0.185,-0.1882,-0.1972,-0.2008,-0.203,-0.2096,-0.2074,-0.2082,-0.2056,-0.1988,-0.1922,-0.1869,-0.2026,-0.2011,-0.1763,-0.1763,-0.1691,-0.1686,-0.1682,-0.1678,-0.1675,0,-0.1392,-0.1422,-0.1544,-0.1575,-0.1628,-0.1703,-0.1744,-0.1852,-0.1877,-0.1974,-0.1967,-0.1997,-0.2016,-0.186,-0.1894,-0.1818,-0.1798,-0.1756,-0.177,-0.1741,-0.1723,-0.1731,-0.1737,-0.1668,-0.1666,-0.1665,-0.1664,0,-0.1318,-0.1378,-0.1423,-0.1493,-0.1549,-0.1598,-0.1666,-0.1672,-0.1775,-0.1879,-0.1839,-0.1815,-0.1785,-0.1752,-0.1704,-0.1656,-0.1781,-0.1709,-0.1718,-0.1731,-0.1712,-0.17,-0.1711,-0.1649,-0.1651,-0.1652,-0.1653,0,-0.1255,-0.1268,-0.1339,-0.138,-0.1449,-0.1462,-0.1518,-0.1535,-0.1573,-0.1684,-0.1659,-0.1693,-0.1756,-0.1665,-0.162,-0.1562,-0.154,-0.1491,-0.1512,-0.153,-0.1497,-0.145,-0.127,0,0,0,0,0,-0.1184,-0.1184,-0.1217,-0.1254,-0.1315,-0.1351,-0.1445,-0.1502,-0.1607,-0.1529,-0.1588,-0.1548,-0.1487,-0.1508,-0.1409,-0.1547,-0.155,-0.1427,-0.1507,-0.1562,-0.158,-0.1557,0,0,0,0,0,0,-0.1136,-0.1164,-0.1173,-0.1134,-0.1131,-0.1179,-0.1233,-0.1308,-0.1275,-0.1387,-0.1356,-0.1441,-0.1401,-0.1502,-0.1369,-0.1374,-0.139,-0.1457,-0.1452,-0.1552,-0.1568,-0.1583,-0.1565,0,0,0,0,0]},{"header":{"parameterUnit":"m.s-1","parameterCategory":2,"la1":30.2991,"la2":30.254,"lo1":-89.0895,"lo2":-89.0444,"dx":0.0017,"dy":0.0017,"nx":28,"ny":28,"refTime":"2022-11-21T15:00:00:Z","depth":"4","parameterNumber":3,"parameterNumberName":"V-component_of_CURRENTS"},"data":[0,0,0,0,0,0,0,0,0,0,0,0,0,0,0,0,0,0,0,0,0,0,0,0,0,0,0,0,0,0,0,0,0,0,0,0,0,0,0,0,0,0,0,0,0,0,0,0,0,0,0,0,0,0,0,0,0,0,-0.0187,-0.0186,0,-0.0148,-0.0148,-0.0147,-0.0126,-0.0126,-0.0126,-0.0126,-0.0062,-0.006,-0.0059,0,0,0,0,0,0,0,0,0,0,0,0,0,-0.0208,-0.0208,-0.0187,-0.0186,-0.0186,-0.0148,-0.0148,-0.0147,-0.0126,-0.0126,-0.0126,-0.0126,-0.0062,-0.006,-0.0058,0,0,0,0,0,0,0,0,0,0,0,0,0,-0.0188,-0.0208,-0.0187,-0.0171,-0.0169,-0.0148,-0.0148,-0.0147,-0.0126,-0.0126,-0.0126,-0.0126,-0.0063,-0.0061,-0.0058,-0.0045,0,0,-0.0051,-0.005,0,0,0,0,0,0,0,0,-0.0189,-0.0187,-0.0173,-0.0172,-0.017,-0.0142,-0.0132,-0.0112,-0.0126,-0.0142,-0.0126,-0.0126,-0.0086,-0.0082,-0.0075,-0.0042,-0.0039,-0.005,-0.0049,-0.0048,-0.0047,0,0,0,0,0,0,0,-0.019,-0.0188,-0.0171,-0.0173,-0.0171,-0.0154,-0.0151,-0.0128,-0.0115,-0.0141,-0.0139,-0.0135,-0.0085,-0.0078,-0.0074,-0.0038,-0.005,-0.0048,-0.0047,-0.0046,0.0007,0.0007,0,0,0,0,0,0,-0.0197,-0.019,-0.0173,-0.017,-0.0179,-0.0154,-0.0151,-0.0151,-0.0116,-0.011,-0.0135,-0.0134,-0.0082,-0.0076,-0.0071,-0.0058,-0.0048,-0.0046,-0.0044,0.0007,0.0007,0.0007,0,0,0,0,0,0,-0.0198,-0.0196,-0.0174,-0.0179,-0.0175,-0.0154,-0.0154,-0.015,-0.0145,-0.0111,-0.0106,-0.0134,-0.0082,-0.0075,-0.0055,-0.0055,-0.0044,-0.0042,0.0007,0.0007,0.0007,-0.0028,0,0,0,0,0,0,-0.0198,-0.0197,-0.0202,-0.0179,-0.0175,-0.0168,-0.0154,-0.0149,-0.0143,-0.0141,-0.0109,-0.0103,-0.0081,-0.0059,-0.0053,-0.0051,-0.004,0.0007,0.0007,0.0007,-0.0027,-0.003,-0.0032,0,0,0,0,0,-0.0199,-0.0207,-0.0203,-0.0201,-0.0183,-0.0168,-0.0165,-0.0149,-0.0143,-0.0143,-0.0122,-0.0104,-0.0055,-0.0057,-0.005,-0.0048,0.0007,0.0007,0.0007,-0.0026,-0.0029,-0.0032,0,0,0,0,0,0,-0.0219,-0.0205,-0.02,-0.0203,-0.019,-0.0165,-0.0165,-0.0153,-0.0136,-0.0136,-0.0104,-0.0096,-0.008,-0.0059,-0.0062,-0.0033,-0.0021,-0.002,-0.0049,-0.0051,-0.0054,-0.006,-0.0038,0,0,0,0,0,-0.0227,-0.0231,-0.0211,-0.0215,-0.021,-0.0189,-0.0182,-0.0171,-0.0152,-0.0145,-0.0122,-0.0097,-0.0074,-0.006,-0.004,-0.0022,0.0005,-0.0016,-0.0018,-0.0021,-0.0021,0.0022,0.0023,0.0007,0.0007,0.0007,0,0,-0.0237,-0.0229,-0.0232,-0.022,-0.0209,-0.0206,-0.0185,-0.0179,-0.0174,-0.014,-0.013,-0.0106,-0.0073,-0.0056,-0.0046,-0.0038,-0.0003,-0.0021,-0.0023,-0.0022,0.0022,0.0023,0.0025,0.0006,0.0006,0.0006,0,0,-0.0256,-0.0251,-0.026,-0.0251,-0.0238,-0.0223,-0.0224,-0.0202,-0.0191,-0.0177,-0.0151,-0.0127,-0.0096,-0.0069,-0.0052,-0.0053,-0.002,-0.0049,-0.0061,-0.002,-0.0019,-0.0017,0.0013,0.0018,-0.0046,-0.0047,-0.0047,0,-0.0269,-0.0277,-0.026,-0.0264,-0.0261,-0.0234,-0.0241,-0.0224,-0.0198,-0.0188,-0.0181,-0.0128,-0.0101,-0.0069,-0.0072,-0.0058,-0.0034,-0.0054,-0.0023,-0.0021,-0.0018,0.0012,0.0018,-0.0048,-0.0048,-0.0048,-0.0048,0,-0.0291,-0.0299,-0.0303,-0.0301,-0.0294,-0.0296,-0.0271,-0.0262,-0.0246,-0.0224,-0.0195,-0.0156,-0.0123,-0.011,-0.0091,-0.006,-0.0049,-0.0034,-0.0017,-0.0019,0.0013,0.002,-0.0051,-0.005,-0.005,-0.0049,0,0,-0.0317,-0.032,-0.0324,-0.0333,-0.0316,-0.0315,-0.0304,-0.0286,-0.028,-0.0246,-0.023,-0.0185,-0.0161,-0.0139,-0.0106,-0.0068,-0.0032,-0.0048,-0.0045,-0.0021,0.0052,0.0046,0.0053,-0.0011,-0.001,-0.0009,0.0065,0,-0.0342,-0.0368,-0.0356,-0.0377,-0.0388,-0.036,-0.0354,-0.0331,-0.0305,-0.0282,-0.0227,-0.0203,-0.0171,-0.0158,-0.0114,-0.0053,-0.0015,-0.0054,0.0052,0.0055,0.0049,0.0061,-0.0005,0.007,0.0071,0.0073,0.0073,0,-0.0368,-0.0383,-0.0413,-0.0422,-0.0424,-0.0429,-0.0417,-0.0407,-0.0359,-0.0337,-0.0291,-0.0248,-0.0187,-0.0164,-0.0052,-0.0079,-0.002,0.0031,0.0035,0.0047,0.0062,0.0075,0.0086,0.0085,0.0084,0.0083,0.0083,0,-0.0401,-0.0423,-0.0453,-0.0456,-0.0458,-0.0465,-0.0463,-0.0429,-0.0423,-0.0372,-0.0357,-0.0275,-0.0237,-0.0146,-0.0043,-0.0046,0.008,0.0091,0.0143,0.0143,0.0142,0.0139,0.0169,0.0169,0.0169,0.0169,0.0168,0,-0.043,-0.0455,-0.0478,-0.0493,-0.0529,-0.0511,-0.0529,-0.0511,-0.0481,-0.0469,-0.0394,-0.036,-0.0231,-0.0141,-0.0049,0.0068,0.0079,0.0144,0.0165,0.0124,0.0118,0.0147,0.0143,0.0171,0.0171,0.017,0.017,0,-0.0457,-0.0472,-0.0511,-0.0534,-0.0548,-0.0574,-0.0587,-0.0593,-0.0557,-0.0538,-0.0525,-0.0421,-0.03,-0.0169,-0.0016,0.0054,0.0168,0.0205,0.0146,0.0162,0.0204,0.0198,0.0271,0.0271,0.0271,0.0272,0.0272,0,-0.047,-0.0495,-0.055,-0.0583,-0.0599,-0.0634,-0.0656,-0.0639,-0.0635,-0.0571,-0.056,-0.0446,-0.0362,-0.0145,-0.0015,0.0166,0.0189,0.0241,0.0229,0.0202,0.0216,0.0209,0.0203,0.0273,0.0273,0.0273,0.0273,0,-0.0492,-0.0518,-0.0551,-0.0624,-0.0667,-0.0707,-0.0731,-0.0731,-0.0694,-0.067,-0.057,-0.0448,-0.0311,-0.0142,-0.0002,0.0125,0.0204,0.0245,0.0245,0.0235,0.0206,0.0218,0.0211,0.0274,0.0274,0.0274,0.0274,0,-0.0508,-0.0543,-0.0595,-0.0653,-0.0716,-0.0753,-0.0763,-0.074,-0.0727,-0.0643,-0.0612,-0.0452,-0.0356,-0.0163,-0.0035,0.0092,0.0121,0.0153,0.0159,0.0159,0.0103,0.0048,0.009,0,0,0,0,0,-0.0515,-0.0558,-0.0619,-0.0682,-0.0743,-0.0772,-0.0799,-0.0792,-0.0756,-0.0689,-0.0643,-0.0507,-0.0294,-0.0201,-0.0074,-0.0043,0.0126,0.0107,0.0162,0.0282,0.0281,0.0233,0,0,0,0,0,0,-0.0523,-0.0582,-0.0616,-0.069,-0.0732,-0.0791,-0.0805,-0.0783,-0.0731,-0.0677,-0.056,-0.0487,-0.028,-0.0362,-0.0072,-0.0035,0.0014,0.0211,0.0213,0.0283,0.0282,0.028,0.0231,0,0,0,0,0]}]]